Torna al catalogo

BREEZE-M R/B

AttivoHEO
NORAD 36793·ROCKET BODY·🇷🇺 Russia

Lanciato Jul 10, 2010 da Baikonur Cosmodrome

Loading…

Prossimi Passaggi (prossime 24 ore)

TLE

AggiornatoSource: Space-Track

Epoca: Sep 14, 2026, 11:50 UTC

1 36793U 10034B   26257.49358096 -.00000329  00000-0  00000-0 0  9997
2 36793  18.5595  83.8137 5551460 118.3565 292.3899  2.04332290120761

Traccia BREEZE-M R/B in tempo reale con AllMySat

Download on the App Store